• In Belarus
  • List of Countries
  • For 7 days
  • Water Temperature
  • Satellite Maps
  • Weather Map
  • Weather Widgets
  • user-avatar
    Login

    Hourly Weather Kobdo

    Today, 23 March, Saturday

    Time Temperature Precipitation Wind Pressure Humidity
    00:00 -8°C° 0 mm 2 mps 591 mmHg 35%
    01:00 -9°C° 0 mm 2 mps 591 mmHg 35%
    02:00 -9°C° 0 mm 2 mps 591 mmHg 35%
    03:00 -9°C° 0 mm 2 mps 590 mmHg 35%
    04:00 -9°C° 0 mm 2 mps 590 mmHg 34%
    05:00 -10°C° 0 mm 2 mps 590 mmHg 33%
    06:00 -10°C° 0 mm 2 mps 590 mmHg 32%
    07:00 -8°C° 0 mm 2 mps 591 mmHg 29%
    08:00 -6°C° 0 mm 2 mps 591 mmHg 26%
    09:00 -4°C° 0 mm 2 mps 592 mmHg 23%
    10:00 -1°C° 0 mm 1 mps 592 mmHg 22%
    11:00 0°C° 0 mm 1 mps 592 mmHg 20%
    12:00 +1°C° 0 mm 1 mps 592 mmHg 18%
    13:00 +1°C° 0 mm 1 mps 591 mmHg 19%
    14:00 +2°C° 0 mm 1 mps 591 mmHg 19%
    15:00 +2°C° 0 mm 1 mps 591 mmHg 20%
    16:00 0°C° 0 mm 1 mps 590 mmHg 24%
    17:00 -1°C° 0 mm 1 mps 589 mmHg 29%
    18:00 -3°C° 0 mm 1 mps 588 mmHg 33%
    19:00 -4°C° 0 mm 1 mps 589 mmHg 33%
    20:00 -6°C° 0 mm 2 mps 589 mmHg 34%
    21:00 -7°C° 0 mm 2 mps 589 mmHg 35%
    22:00 -7°C° 0 mm 2 mps 589 mmHg 34%
    23:00 -8°C° 0 mm 3 mps 589 mmHg 34%

    Tomorrow, 24 March, Sunday

    Time Temperature Precipitation Wind Pressure Humidity
    00:00 -9°C° 0 mm 3 mps 588 mmHg 33%
    01:00 -9°C° 0 mm 3 mps 588 mmHg 30%
    02:00 -10°C° 0 mm 3 mps 588 mmHg 28%
    03:00 -10°C° 0 mm 3 mps 587 mmHg 25%
    04:00 -10°C° 0 mm 3 mps 587 mmHg 22%
    05:00 -10°C° 0 mm 3 mps 587 mmHg 19%
    06:00 -12°C° 0 mm 3 mps 587 mmHg 16%
    07:00 -9°C° 0 mm 3 mps 588 mmHg 16%
    08:00 -6°C° 0 mm 2 mps 588 mmHg 15%
    09:00 -4°C° 0 mm 2 mps 589 mmHg 15%
    10:00 -3°C° 0 mm 2 mps 589 mmHg 15%
    11:00 0°C° 0 mm 1 mps 589 mmHg 14%
    12:00 +1°C° 0 mm 1 mps 589 mmHg 14%
    13:00 +2°C° 0 mm 1 mps 589 mmHg 15%
    14:00 +2°C° 0 mm 1 mps 589 mmHg 16%
    15:00 +2°C° 0 mm 1 mps 589 mmHg 17%
    16:00 +1°C° 0 mm 1 mps 588 mmHg 21%
    17:00 -1°C° 0 mm 1 mps 587 mmHg 25%
    18:00 -3°C° 0 mm 1 mps 587 mmHg 29%
    19:00 -3°C° 0 mm 1 mps 587 mmHg 31%
    20:00 -5°C° 0 mm 2 mps 587 mmHg 34%
    21:00 -6°C° 0 mm 2 mps 587 mmHg 36%
    22:00 -6°C° 0 mm 2 mps 587 mmHg 38%
    23:00 -6°C° 0 mm 2 mps 587 mmHg 40%

    Day after tomorrow, 25 March, Monday

    Time Temperature Precipitation Wind Pressure Humidity
    00:00 -8°C° 0 mm 3 mps 587 mmHg 41%
    01:00 -8°C° 0 mm 3 mps 586 mmHg 39%
    02:00 -8°C° 0 mm 3 mps 586 mmHg 37%
    03:00 -9°C° 0 mm 3 mps 586 mmHg 35%
    04:00 -9°C° 0 mm 3 mps 586 mmHg 33%
    05:00 -9°C° 0 mm 3 mps 586 mmHg 31%
    06:00 -9°C° 0 mm 3 mps 586 mmHg 28%
    07:00 -7°C° 0 mm 3 mps 587 mmHg 26%
    08:00 -6°C° 0 mm 3 mps 587 mmHg 25%
    09:00 -4°C° 0 mm 3 mps 588 mmHg 23%
    10:00 -2°C° 0 mm 2 mps 588 mmHg 23%
    11:00 -1°C° 0 mm 2 mps 588 mmHg 24%
    12:00 +2°C° 0 mm 1 mps 588 mmHg 25%
    13:00 +2°C° 0 mm 1 mps 588 mmHg 26%
    14:00 +3°C° 0 mm 1 mps 588 mmHg 27%
    15:00 +3°C° 0 mm 1 mps 588 mmHg 28%
    16:00 +2°C° 0 mm 1 mps 587 mmHg 33%
    17:00 +1°C° 0 mm 1 mps 587 mmHg 37%
    18:00 -1°C° 0 mm 1 mps 587 mmHg 41%
    19:00 -1°C° 0 mm 1 mps 587 mmHg 45%
    20:00 -2°C° 0 mm 1 mps 587 mmHg 48%
    21:00 -4°C° 0 mm 2 mps 588 mmHg 51%
    22:00 -5°C° 0 mm 2 mps 587 mmHg 53%
    23:00 -5°C° 0 mm 2 mps 587 mmHg 56%

    26 March, Tuesday

    Time Temperature Precipitation Wind Pressure Humidity
    00:00 -5°C° 0 mm 2 mps 587 mmHg 58%
    01:00 -5°C° 0.1 mm 2 mps 587 mmHg 60%
    02:00 -3°C° 0.1 mm 1 mps 588 mmHg 61%
    03:00 -3°C° 0.1 mm 1 mps 588 mmHg 63%
    04:00 -4°C° 0.2 mm 1 mps 588 mmHg 66%
    05:00 -4°C° 0.2 mm 1 mps 588 mmHg 68%
    06:00 -4°C° 0.2 mm 1 mps 588 mmHg 71%
    07:00 -4°C° 0.2 mm 1 mps 589 mmHg 71%
    08:00 -4°C° 0.2 mm 1 mps 589 mmHg 70%
    09:00 -4°C° 0.2 mm 1 mps 589 mmHg 70%
    10:00 -3°C° 0.1 mm 1 mps 589 mmHg 67%
    11:00 -2°C° 0.1 mm 1 mps 589 mmHg 64%
    12:00 -4°C° 0.1 mm 2 mps 589 mmHg 61%
    13:00 -4°C° 0.3 mm 2 mps 589 mmHg 65%
    14:00 -4°C° 0.3 mm 2 mps 589 mmHg 68%
    15:00 -5°C° 0.3 mm 3 mps 589 mmHg 72%
    16:00 -5°C° 0.5 mm 2 mps 589 mmHg 77%
    17:00 -5°C° 0.5 mm 2 mps 589 mmHg 81%
    18:00 -4°C° 0.5 mm 1 mps 590 mmHg 86%
    19:00 -4°C° 0.1 mm 1 mps 590 mmHg 88%
    20:00 -4°C° 0.1 mm 1 mps 591 mmHg 89%
    21:00 -6°C° 0.1 mm 1 mps 591 mmHg 90%
    22:00 -6°C° 0.1 mm 1 mps 591 mmHg 91%
    23:00 -6°C° 0.1 mm 1 mps 591 mmHg 91%

    27 March, Wednesday

    Time Temperature Precipitation Wind Pressure Humidity
    00:00 -7°C° 0.1 mm 1 mps 591 mmHg 91%
    01:00 -7°C° 0 mm 1 mps 591 mmHg 90%
    02:00 -8°C° 0 mm 1 mps 591 mmHg 89%
    03:00 -9°C° 0 mm 1 mps 591 mmHg 88%
    04:00 -9°C° 0 mm 1 mps 591 mmHg 83%
    05:00 -9°C° 0 mm 1 mps 591 mmHg 77%
    06:00 -10°C° 0 mm 1 mps 591 mmHg 72%
    07:00 -8°C° 0 mm 1 mps 592 mmHg 65%
    08:00 -7°C° 0 mm 1 mps 592 mmHg 58%
    09:00 -4°C° 0 mm 1 mps 593 mmHg 51%
    10:00 -3°C° 0 mm 1 mps 593 mmHg 49%
    11:00 -4°C° 0 mm 2 mps 593 mmHg 46%
    12:00 -3°C° 0 mm 2 mps 593 mmHg 44%
    13:00 -3°C° 0 mm 2 mps 592 mmHg 43%
    14:00 -2°C° 0 mm 2 mps 592 mmHg 43%
    15:00 -1°C° 0 mm 2 mps 592 mmHg 42%
    16:00 -3°C° 0 mm 2 mps 591 mmHg 45%
    17:00 -4°C° 0 mm 2 mps 591 mmHg 49%
    18:00 -3°C° 0 mm 1 mps 591 mmHg 52%
    19:00 -3°C° 0 mm 1 mps 591 mmHg 53%
    20:00 -4°C° 0 mm 1 mps 591 mmHg 53%
    21:00 -4°C° 0 mm 1 mps 591 mmHg 54%
    22:00 -6°C° 0 mm 2 mps 591 mmHg 52%
    23:00 -6°C° 0 mm 2 mps 591 mmHg 50%

    28 March, Thursday

    Time Temperature Precipitation Wind Pressure Humidity
    00:00 -6°C° 0 mm 2 mps 591 mmHg 48%
    01:00 -6°C° 0 mm 2 mps 591 mmHg 46%
    02:00 -5°C° 0 mm 2 mps 591 mmHg 44%
    03:00 -5°C° 0 mm 2 mps 591 mmHg 42%
    04:00 -5°C° 0 mm 2 mps 591 mmHg 41%
    05:00 -5°C° 0 mm 2 mps 591 mmHg 40%
    06:00 -4°C° 0 mm 1 mps 591 mmHg 40%
    07:00 -2°C° 0 mm 1 mps 591 mmHg 37%
    08:00 -1°C° 0 mm 1 mps 592 mmHg 34%
    09:00 +1°C° 0 mm 1 mps 592 mmHg 31%
    10:00 +2°C° 0 mm 1 mps 592 mmHg 30%
    11:00 +3°C° 0 mm 1 mps 592 mmHg 29%
    12:00 +4°C° 0 mm 1 mps 592 mmHg 28%
    13:00 +4°C° 0 mm 1 mps 592 mmHg 30%
    14:00 +3°C° 0 mm 2 mps 592 mmHg 31%
    15:00 +3°C° 0 mm 2 mps 592 mmHg 33%
    16:00 +1°C° 0 mm 2 mps 591 mmHg 37%
    17:00 +1°C° 0 mm 1 mps 590 mmHg 42%
    18:00 -1°C° 0 mm 1 mps 590 mmHg 47%
    19:00 -1°C° 0 mm 1 mps 590 mmHg 48%
    20:00 -2°C° 0 mm 1 mps 590 mmHg 49%
    21:00 -3°C° 0 mm 1 mps 590 mmHg 50%
    22:00 -3°C° 0 mm 1 mps 589 mmHg 49%
    23:00 -3°C° 0 mm 1 mps 589 mmHg 49%
    Show more